Location: Newark
(17.1333°N, 61.8333°W)
Time: 07:26:13
(UTC+00:00)

Envisat - Visible Passes

Search period start: 22 July 2019 00:00
Search period end: 01 August 2019 00:00
Orbit: 764 x 766 km, 98.1° (Epoch: 22 July)

Date Brightness Start Highest point End Pass type
(mag) Time Alt. Az. Time Alt. Az. Time Alt. Az.
22 Jul 4.0 23:04:35 10° S 23:09:29 50° W 23:14:23 10° NNW visible
24 Jul 5.2 23:30:54 10° SSW 23:34:59 25° W 23:39:06 10° NW visible
26 Jul 5.9 23:58:45 10° WSW 00:00:34 12° W 00:02:23 10° WNW visible
27 Jul 4.8 23:19:13 10° SSW 23:23:45 33° W 23:28:17 10° NW visible
29 Jul 5.7 23:46:11 10° SW 23:49:17 16° W 23:52:25 10° WNW visible
30 Jul 4.2 23:07:41 10° S 23:12:30 44° W 23:17:19 10° NNW visible
